Back to catalog

STARLINK-31328

AliveCommunicationsVLEO
NORAD 58880·PAYLOAD·🇺🇸 United States

Launched Jan 29, 2024 from Vandenberg Space Force Base

Loading…

Next Passes (next 24 hours)

TLE

FreshSource: CelesTrak SupGP

Epoch: Sep 15, 2026, 03:04 UTC

1 58880C 24020E   26258.12826389  .00027773  00000+0  82078-3 0  2580
2 58880  53.1598 146.5026 0001352  84.2160 111.8355 15.34368037    13

Track STARLINK-31328 in real time with AllMySat

Download on the App Store